[[{"header":{"parameterUnit":"m.s-1","parameterCategory":1,"la1":30.2991,"la2":30.254,"lo1":-89.0895,"lo2":-89.0444,"dy":0.0017,"dx":0.0017,"nx":28,"ny":28,"refTime":"2023-11-17T03:00:00:Z","depth":0,"parameterNumber":2,"parameterNumberName":"U-component_of_WINDS"},"data":[0,0,0,0,0,0,0,0,0,0,0,0,0,0,0,0,0,0,0,0,0,0,0,0,0,0,0,0,0,0,0,0,0,0,0,0,0,0,0,0,0,0,0,0,0,0,0,0,0,0,0,0,0,0,0,0,0,0,1.0477,1.0477,0,1.0441,1.0441,1.044,1.0412,1.0412,1.0412,1.0411,1.037,1.0369,1.0368,0,0,0,0,0,0,0,0,0,0,0,0,0,1.0521,1.052,1.0477,1.0477,1.0477,1.0441,1.0441,1.044,1.0412,1.0412,1.0412,1.0411,1.037,1.0369,1.0368,0,0,0,0,0,0,0,0,0,0,0,0,0,1.0495,1.052,1.0477,1.0458,1.0456,1.0441,1.0441,1.044,1.0412,1.0412,1.0411,1.0411,1.0371,1.037,1.0368,1.0368,0,0,1.0364,1.0364,0,0,0,0,0,0,0,0,1.0496,1.0493,1.0462,1.046,1.0457,1.0431,1.0441,1.0416,1.0412,1.0429,1.0411,1.0411,1.039,1.0387,1.0381,1.0366,1.0364,1.0364,1.0363,1.0363,1.0362,0,0,0,0,0,0,0,1.0498,1.0495,1.0463,1.0461,1.0459,1.0451,1.0447,1.0436,1.0412,1.0427,1.0425,1.0422,1.0389,1.0383,1.038,1.0364,1.0364,1.0363,1.0362,1.0362,1.035,1.035,0,0,0,0,0,0,1.0503,1.0496,1.0464,1.0462,1.0476,1.0451,1.0446,1.044,1.0412,1.0408,1.0422,1.042,1.0385,1.0382,1.0379,1.0378,1.0363,1.0362,1.0361,1.0349,1.035,1.035,0,0,0,0,0,0,1.0504,1.0501,1.0466,1.0479,1.0474,1.045,1.0443,1.0439,1.0433,1.0408,1.0403,1.042,1.0385,1.038,1.0372,1.0376,1.0361,1.036,1.0349,1.0349,1.035,1.0377,0,0,0,0,0,0,1.0506,1.0501,1.0501,1.0479,1.0473,1.046,1.0444,1.0439,1.0431,1.0429,1.0405,1.0401,1.0384,1.0374,1.0371,1.0374,1.0359,1.0348,1.0349,1.035,1.0375,1.0378,1.0381,0,0,0,0,0,1.0507,1.0508,1.0501,1.0497,1.0472,1.046,1.0457,1.0439,1.0432,1.0431,1.0416,1.0401,1.0377,1.0373,1.0369,1.0373,1.0348,1.0349,1.035,1.0374,1.0378,1.0381,0,0,0,0,0,0,1.0529,1.0505,1.0497,1.0491,1.0478,1.0455,1.0454,1.0443,1.043,1.0428,1.0406,1.0401,1.0395,1.0383,1.0379,1.0373,1.0361,1.0361,1.0381,1.0384,1.0386,1.0389,1.0358,0,0,0,0,0,1.0534,1.0527,1.0506,1.0502,1.0497,1.0477,1.0471,1.0459,1.0444,1.0438,1.0421,1.0407,1.0396,1.0389,1.0378,1.0374,1.0369,1.0375,1.0378,1.038,1.038,1.038,1.0382,1.0354,1.0354,1.0353,0,0,1.0542,1.0528,1.0524,1.0506,1.0495,1.0488,1.0472,1.0464,1.0459,1.0436,1.0428,1.0416,1.0398,1.0393,1.0389,1.0383,1.0388,1.0381,1.0383,1.0382,1.0381,1.0384,1.0386,1.0354,1.0354,1.0354,0,0,1.0554,1.0542,1.0539,1.053,1.0514,1.0501,1.0501,1.0481,1.0473,1.0465,1.0448,1.0441,1.0423,1.0412,1.0404,1.0416,1.0403,1.0413,1.0427,1.0427,1.0429,1.0431,1.0436,1.0438,1.0413,1.0414,1.0414,0,1.0565,1.0555,1.0539,1.0534,1.0527,1.0509,1.0506,1.0497,1.0477,1.0473,1.0466,1.0445,1.0432,1.0425,1.0428,1.0422,1.0421,1.0415,1.043,1.0432,1.0433,1.0438,1.044,1.0415,1.0415,1.0415,1.0414,0,1.0571,1.0565,1.0564,1.0549,1.0543,1.0538,1.0522,1.0517,1.0507,1.0495,1.0488,1.0472,1.0459,1.0456,1.0444,1.0448,1.0445,1.0434,1.0422,1.0438,1.0442,1.0444,1.0417,1.0416,1.0416,1.0416,0,0,1.0592,1.0572,1.0572,1.0566,1.0549,1.0544,1.054,1.0529,1.0526,1.0514,1.051,1.0497,1.0489,1.048,1.0467,1.0467,1.048,1.0457,1.0456,1.0462,1.0485,1.0494,1.0496,1.0472,1.0472,1.0473,1.0487,0,1.0602,1.0595,1.0582,1.0579,1.0574,1.0559,1.0556,1.0545,1.0535,1.0529,1.0517,1.0509,1.0498,1.0493,1.0492,1.0479,1.0485,1.0478,1.0468,1.0468,1.0473,1.0498,1.0506,1.052,1.0489,1.0489,1.0489,0,1.0611,1.0603,1.0601,1.0588,1.0585,1.0583,1.0573,1.0567,1.0556,1.0549,1.0541,1.0529,1.0524,1.0514,1.0508,1.0504,1.05,1.0493,1.0493,1.0491,1.0479,1.0497,1.0524,1.0527,1.0492,1.0491,1.0491,0,1.0628,1.0617,1.0615,1.061,1.0594,1.0594,1.0587,1.0575,1.0571,1.0562,1.0559,1.0549,1.0544,1.0537,1.0523,1.0516,1.0519,1.0507,1.0513,1.0514,1.0514,1.0514,1.0541,1.0511,1.0511,1.0511,1.0511,0,1.064,1.0639,1.0623,1.0621,1.0621,1.0607,1.0606,1.0598,1.0589,1.0586,1.0571,1.0568,1.055,1.0545,1.0534,1.0532,1.0529,1.0523,1.052,1.0524,1.0525,1.0521,1.052,1.0512,1.0512,1.0512,1.0511,0,1.0657,1.0647,1.0644,1.0631,1.0628,1.0628,1.0617,1.0615,1.0606,1.0602,1.0601,1.0586,1.058,1.0565,1.0554,1.0547,1.0548,1.0543,1.0553,1.0551,1.0559,1.0558,1.0583,1.0587,1.0555,1.0555,1.0556,0,1.0665,1.0665,1.0654,1.0652,1.0647,1.0643,1.0639,1.0626,1.0623,1.0612,1.0612,1.0606,1.06,1.0591,1.0579,1.0571,1.0565,1.0575,1.0564,1.0569,1.0567,1.0567,1.0567,1.0577,1.0577,1.0578,1.0578,0,1.0681,1.0677,1.0673,1.0668,1.0665,1.066,1.0653,1.0653,1.0638,1.0635,1.063,1.0626,1.0618,1.0612,1.0603,1.0596,1.0585,1.0582,1.0583,1.0587,1.0594,1.0592,1.056,1.0581,1.0581,1.0581,1.058,1.058,1.0694,1.0695,1.0688,1.0685,1.068,1.0675,1.0674,1.0667,1.0663,1.0656,1.0649,1.0645,1.0637,1.0625,1.0619,1.0616,1.061,1.0611,1.0611,1.0612,1.0615,1.0595,1.0614,1.0614,1.0614,1.0614,1.0614,0,1.071,1.0706,1.0703,1.0698,1.0696,1.0688,1.0682,1.0681,1.0679,1.0672,1.0668,1.0664,1.0659,1.0648,1.0643,1.0643,1.0638,1.0642,1.0641,1.064,1.062,1.062,1.0646,1.0646,1.0646,1.0646,1.0646,1.0646,1.0718,1.0719,1.0714,1.0713,1.0709,1.0707,1.0705,1.0701,1.0696,1.0693,1.069,1.0684,1.0676,1.0671,1.0667,1.0664,1.0662,1.0668,1.0663,1.0644,1.0641,1.0638,1.0638,1.0668,1.0668,1.0684,1.0684,1.0684]},{"header":{"parameterUnit":"m.s-1","parameterCategory":1,"la1":30.2991,"la2":30.254,"lo1":-89.0895,"lo2":-89.0444,"dy":0.0017,"dx":0.0017,"nx":28,"ny":28,"refTime":"2023-11-17T03:00:00:Z","depth":0,"parameterNumber":3,"parameterNumberName":"V-component_of_WINDS"},"data":[0,0,0,0,0,0,0,0,0,0,0,0,0,0,0,0,0,0,0,0,0,0,0,0,0,0,0,0,0,0,0,0,0,0,0,0,0,0,0,0,0,0,0,0,0,0,0,0,0,0,0,0,0,0,0,0,0,0,-2.7338,-2.7338,0,-2.7313,-2.7313,-2.7313,-2.726,-2.7259,-2.7258,-2.7257,-2.7233,-2.7234,-2.7234,0,0,0,0,0,0,0,0,0,0,0,0,0,-2.7341,-2.7342,-2.7338,-2.7338,-2.7338,-2.7313,-2.7313,-2.7313,-2.726,-2.7259,-2.7258,-2.7256,-2.7233,-2.7234,-2.7234,0,0,0,0,0,0,0,0,0,0,0,0,0,-2.7331,-2.7342,-2.7338,-2.7309,-2.7306,-2.7314,-2.7313,-2.7313,-2.7261,-2.7259,-2.7257,-2.7256,-2.7233,-2.7234,-2.7234,-2.727,0,0,-2.7236,-2.7236,0,0,0,0,0,0,0,0,-2.7331,-2.7331,-2.7313,-2.7311,-2.7307,-2.7288,-2.7306,-2.7298,-2.7261,-2.7278,-2.7257,-2.7255,-2.7253,-2.7252,-2.7251,-2.7269,-2.7268,-2.7236,-2.7236,-2.7237,-2.7237,0,0,0,0,0,0,0,-2.7332,-2.7332,-2.7328,-2.7313,-2.7309,-2.7297,-2.7293,-2.7304,-2.7275,-2.7276,-2.7272,-2.727,-2.7251,-2.725,-2.725,-2.7267,-2.7236,-2.7237,-2.7237,-2.7237,-2.7313,-2.7314,0,0,0,0,0,0,-2.7337,-2.7333,-2.7329,-2.7328,-2.7316,-2.7298,-2.7294,-2.7296,-2.7274,-2.727,-2.7271,-2.7268,-2.725,-2.7249,-2.7249,-2.7289,-2.7237,-2.7237,-2.7237,-2.7311,-2.7313,-2.7315,0,0,0,0,0,0,-2.7337,-2.7337,-2.733,-2.7329,-2.7327,-2.73,-2.7302,-2.7296,-2.7295,-2.7271,-2.7265,-2.7276,-2.7249,-2.7248,-2.7265,-2.7287,-2.7237,-2.7238,-2.7309,-2.7312,-2.7314,-2.737,0,0,0,0,0,0,-2.7338,-2.7338,-2.7351,-2.733,-2.7327,-2.7347,-2.7303,-2.7297,-2.7296,-2.7291,-2.7274,-2.7269,-2.7248,-2.7264,-2.7265,-2.7287,-2.7238,-2.7307,-2.731,-2.7313,-2.7366,-2.7374,-2.7381,0,0,0,0,0,-2.7338,-2.7368,-2.7352,-2.7352,-2.7343,-2.7348,-2.7347,-2.7321,-2.7298,-2.7311,-2.7295,-2.727,-2.7285,-2.7266,-2.7267,-2.729,-2.7306,-2.7309,-2.7313,-2.7363,-2.7372,-2.7381,0,0,0,0,0,0,-2.7394,-2.7365,-2.7346,-2.737,-2.7362,-2.7339,-2.7355,-2.7332,-2.733,-2.7326,-2.7294,-2.729,-2.7311,-2.7302,-2.7282,-2.7323,-2.7291,-2.7295,-2.7328,-2.7337,-2.7345,-2.7347,-2.7239,0,0,0,0,0,-2.7409,-2.7414,-2.7389,-2.7413,-2.7409,-2.7383,-2.7384,-2.7364,-2.7355,-2.7351,-2.7336,-2.7328,-2.7331,-2.7333,-2.7335,-2.7364,-2.7359,-2.738,-2.7387,-2.7393,-2.7398,-2.7412,-2.7421,-2.7327,-2.7327,-2.7327,0,0,-2.744,-2.7425,-2.7431,-2.7423,-2.7415,-2.7422,-2.738,-2.739,-2.7395,-2.7353,-2.7367,-2.7356,-2.7345,-2.7368,-2.7378,-2.7361,-2.7422,-2.7398,-2.7403,-2.7404,-2.7417,-2.7426,-2.7434,-2.733,-2.733,-2.7329,0,0,-2.75,-2.7489,-2.7508,-2.7499,-2.7486,-2.7468,-2.7472,-2.7453,-2.7443,-2.7457,-2.7426,-2.7431,-2.7437,-2.743,-2.7427,-2.7484,-2.7461,-2.7486,-2.7525,-2.754,-2.7547,-2.7554,-2.7574,-2.7582,-2.749,-2.749,-2.749,0,-2.7541,-2.755,-2.752,-2.7531,-2.7529,-2.749,-2.7509,-2.7502,-2.749,-2.749,-2.7471,-2.7477,-2.7467,-2.7487,-2.7501,-2.75,-2.7505,-2.7488,-2.7548,-2.7554,-2.756,-2.7579,-2.7587,-2.7493,-2.7493,-2.7492,-2.7492,0,-2.7601,-2.7608,-2.7624,-2.7613,-2.7612,-2.7627,-2.76,-2.7603,-2.7583,-2.7567,-2.7582,-2.7568,-2.7566,-2.7569,-2.755,-2.7587,-2.7577,-2.7554,-2.7521,-2.7573,-2.759,-2.7597,-2.7497,-2.7496,-2.7495,-2.7495,0,0,-2.7698,-2.7668,-2.7675,-2.7669,-2.7651,-2.7655,-2.7668,-2.7665,-2.7668,-2.7661,-2.7672,-2.7676,-2.7654,-2.7651,-2.7631,-2.7644,-2.769,-2.7619,-2.7618,-2.7633,-2.773,-2.7749,-2.7758,-2.7674,-2.7675,-2.7676,-2.7731,0,-2.7755,-2.7775,-2.7748,-2.7774,-2.778,-2.7742,-2.7753,-2.7743,-2.7729,-2.7732,-2.7715,-2.7719,-2.769,-2.7688,-2.7699,-2.7682,-2.7709,-2.7678,-2.7684,-2.7685,-2.7689,-2.7767,-2.7786,-2.7839,-2.7738,-2.7739,-2.774,0,-2.7824,-2.7819,-2.7846,-2.7825,-2.7827,-2.7837,-2.7832,-2.7835,-2.7823,-2.7811,-2.7807,-2.7783,-2.7794,-2.7762,-2.7777,-2.7757,-2.7757,-2.775,-2.7751,-2.7751,-2.7716,-2.777,-2.7855,-2.7863,-2.7751,-2.775,-2.7749,0,-2.7893,-2.7893,-2.7908,-2.7904,-2.7881,-2.7889,-2.7879,-2.7866,-2.7865,-2.786,-2.786,-2.7857,-2.7855,-2.7854,-2.7829,-2.7808,-2.7848,-2.7813,-2.7839,-2.784,-2.785,-2.785,-2.7937,-2.7849,-2.7849,-2.7849,-2.7849,0,-2.796,-2.7978,-2.7939,-2.7949,-2.7967,-2.7936,-2.7955,-2.7942,-2.793,-2.7937,-2.7904,-2.7911,-2.7878,-2.7882,-2.7862,-2.7878,-2.7878,-2.7869,-2.7864,-2.7873,-2.7874,-2.7873,-2.7869,-2.7851,-2.7851,-2.785,-2.785,0,-2.804,-2.8015,-2.8029,-2.8005,-2.7999,-2.8014,-2.7993,-2.8002,-2.7984,-2.7993,-2.7993,-2.7966,-2.7969,-2.7943,-2.7942,-2.7929,-2.7954,-2.7942,-2.7958,-2.7954,-2.7981,-2.7979,-2.8072,-2.8083,-2.7988,-2.7989,-2.7989,0,-2.8085,-2.8098,-2.8074,-2.8076,-2.8068,-2.8071,-2.807,-2.8039,-2.804,-2.8026,-2.8036,-2.8036,-2.8034,-2.804,-2.802,-2.8018,-2.8007,-2.8039,-2.8006,-2.8014,-2.8008,-2.8008,-2.8009,-2.8047,-2.8048,-2.8049,-2.805,0,-2.8168,-2.8154,-2.8154,-2.8148,-2.8148,-2.8142,-2.8135,-2.8138,-2.8104,-2.8107,-2.8108,-2.8107,-2.8104,-2.8104,-2.8098,-2.8089,-2.8064,-2.806,-2.8066,-2.8075,-2.8084,-2.808,-2.7977,-2.8058,-2.8057,-2.8057,-2.8056,-2.8056,-2.8233,-2.8242,-2.8226,-2.8227,-2.8217,-2.8211,-2.8217,-2.8199,-2.82,-2.8195,-2.8176,-2.8181,-2.8168,-2.8158,-2.815,-2.8154,-2.8138,-2.8147,-2.8149,-2.8152,-2.8157,-2.8083,-2.8153,-2.8153,-2.8152,-2.8152,-2.8152,0,-2.8314,-2.8302,-2.8302,-2.8292,-2.8292,-2.8267,-2.8257,-2.8259,-2.8263,-2.8253,-2.8251,-2.8253,-2.8252,-2.8232,-2.823,-2.8236,-2.8225,-2.8237,-2.8237,-2.8235,-2.8171,-2.8166,-2.8246,-2.8246,-2.8246,-2.8246,-2.8246,-2.8246,-2.8357,-2.8371,-2.8355,-2.8365,-2.8352,-2.8356,-2.8352,-2.8346,-2.8337,-2.8341,-2.834,-2.8326,-2.8312,-2.8307,-2.8306,-2.83,-2.8301,-2.8317,-2.8307,-2.8248,-2.8239,-2.8231,-2.8226,-2.8317,-2.8317,-2.8371,-2.8371,-2.8371]}]]